Terug naar catalogus

OBJECT B

ActiefHEO
NORAD 100126·UNKNOWN·🇺🇸 United States

Gelanceerd Jul 21, 2026 vanaf Cape Canaveral Space Force Station

Loading…

Volgende Passages (komende 24 uur)

TLE

VersSource: Space-Track

Epoch: Sep 8, 2026, 01:44 UTC

1 A0126U 26167B   26251.07283241  .00000237  00000-0  82761-2 0  9992
2 A0126  24.8050  87.0495 7607248 201.6148  89.8873  1.72633797   849

Volg OBJECT B in realtime met AllMySat

Download on the App Store